Location: Asarope
(8.2500°N, 4.4833°E)
Time: 22:13:37
(UTC+00:00)

Ariane H10+ - Pass Details

Date: 07 June 2020
Orbit: 169 x 1635 km, 4.0° (Epoch: 10 July)

Event Time Altitude Azimuth Distance (km) Brightness Sun altitude
Exits shadow 03:53:58 41° 234° (SW) 1,188 3.5 -20.8°
Maximum altitude 03:55:48 59° 176° (S) 1,062 3.5 -20.4°
Drops below altitude 10° 04:04:04 10° 99° (E) 3,407 7.1 -18.6°
Sets 04:07:54 0° 96° (E) 4,680 8.0 -17.8°
